Weather History for Wooster, OH

Change the Weather History Date:

Monday, November 19, 2012

  Actual Average Record
Temperature  
Mean Temperature 40 °F -  
Max Temperature 54 °F 46 °F 63 °F (1999)
Min Temperature 25 °F 30 °F 19 °F (2008)
Degree Days  
Heating Degree Days 26    
Moisture  
Dew Point 29 °F    
Average Humidity 78    
Maximum Humidity 92    
Minimum Humidity 47    
Precipitation  
Precipitation 0.00 in - - ()
Sea Level Pressure  
Sea Level Pressure 30.35 in    
Wind  
Wind Speed 0 mph (SE)    
Max Wind Speed 5 mph    
Max Gust Speed -    
Visibility 8 miles    
Events      
Averages and records for this station are not official NWS values.
T = Trace of Precipitation, MM = Missing Value Source: NWS Daily Summary

Daily Weather History Graph

Daily Weather History Graph

Search for Another Location

Airport:

Trip Planner

Search our weather history database for the weather conditions in past years. The results will help you decide how hot, cold, wet, or windy it might be!

Date:

Astronomy

Nov. 19, 2012 Rise Set
Actual Time 7:19 AM EST 5:05 PM EST
Civil Twilight 6:50 AM EST 5:35 PM EST
Nautical Twilight 6:16 AM EST 6:08 PM EST
Astronomical Twilight 5:44 AM EST 6:41 PM EST
Moon 12:21 PM EST (11/19) 11:32 PM EST (11/19)
Length of Visible Light 10h 45m
Length of Day
9h 45m
Waxing Crescent, 40% of the Moon is Illuminated
Nov 19
Waxing Crescent
Nov 20
First Quarter
Nov 28
Full
Dec 6
Last Quarter
Dec 13
New

Hourly Weather History & Observations

Time (EST) Temp. Windchill Dew Point Humidity Pressure Visibility Wind Dir Wind Speed Gust Speed Precip Events Conditions
12:56 AM 27.0 °F - 25.0 °F 92% 30.44 in 8.0 mi Calm Calm - N/A   Clear
1:56 AM 27.0 °F - 25.0 °F 92% 30.42 in 8.0 mi Calm Calm - N/A   Clear
2:56 AM 26.1 °F - 23.0 °F 88% 30.42 in 7.0 mi Calm Calm - N/A   Clear
3:56 AM 25.0 °F - 23.0 °F 92% 30.41 in 7.0 mi Calm Calm - N/A   Clear
4:56 AM 25.0 °F - 23.0 °F 92% 30.42 in 7.0 mi Calm Calm - N/A   Clear
5:56 AM 25.0 °F - 23.0 °F 92% 30.42 in 7.0 mi Calm Calm - N/A   Clear
6:56 AM 25.0 °F - 21.9 °F 88% 30.43 in 6.0 mi Calm Calm - N/A   Clear
7:56 AM 28.0 °F - 26.1 °F 92% 30.43 in 5.0 mi Calm Calm - N/A   Clear
8:56 AM 30.9 °F 27.5 °F 28.0 °F 89% 30.42 in 4.0 mi SE 3.5 mph - N/A   Clear
9:56 AM 36.0 °F - 30.9 °F 82% 30.42 in 7.0 mi Calm Calm - N/A   Clear
10:56 AM 42.1 °F 40.2 °F 33.1 °F 70% 30.40 in 8.0 mi SSE 3.5 mph - N/A   Clear
11:56 AM 48.0 °F - 34.0 °F 58% 30.37 in 10.0 mi Calm Calm - N/A   Clear
12:56 PM 51.1 °F - 33.1 °F 50% 30.35 in 10.0 mi Calm Calm - N/A   Clear
1:56 PM 53.1 °F - 33.1 °F 47% 30.32 in 10.0 mi SE 4.6 mph - N/A   Clear
2:56 PM 54.0 °F - 34.0 °F 47% 30.31 in 10.0 mi Calm Calm - N/A   Clear
3:56 PM 52.0 °F - 33.1 °F 49% 30.30 in 10.0 mi Calm Calm - N/A   Clear
4:56 PM 46.9 °F - 35.1 °F 63% 30.30 in 10.0 mi Calm Calm - N/A   Clear
5:56 PM 44.1 °F - 34.0 °F 68% 30.29 in 10.0 mi Calm Calm - N/A   Clear
6:56 PM 39.9 °F - 34.0 °F 79% 30.29 in 9.0 mi Calm Calm - N/A   Clear
7:56 PM 36.0 °F - 32.0 °F 86% 30.28 in 8.0 mi Calm Calm - 0.00 in   Clear
8:56 PM 34.0 °F - 30.0 °F 85% 30.27 in 7.0 mi Calm Calm - N/A   Clear
9:56 PM 33.1 °F - 30.9 °F 92% 30.26 in 6.0 mi Calm Calm - N/A   Clear
10:56 PM 32.0 °F - 30.0 °F 92% 30.24 in 5.0 mi Calm Calm - N/A   Clear
11:56 PM 34.0 °F - 32.0 °F 92% 30.23 in 6.0 mi Calm Calm - N/A   Clear